OK2ARM-6 Weather Reports


time (UTC)temp
F
wind
direction
speed
knots
gust
knots
rain 1hr
in
rain 24hr
in
rain mn
in
humidity
%
barometer
mb
20260506143647 73 0.0 0.0 0.00 0.00 0.00 100 1005.8
20260506141423 71 0.0 0.0 0.00 0.00 0.00 100 1006.1
20260506140423 71 0.0 0.0 0.00 0.00 0.00 100 1006.0
20260506135423 72 0.0 0.0 0.00 0.00 0.00 100 1006.1
20260506134423 73 0.0 0.0 0.00 0.00 0.00 100 1006.3
20260506133423 76 0.0 0.0 0.00 0.00 0.00 100 1006.3
20260506132423 71 0.0 0.0 0.00 0.00 0.00 100 1006.6
20260506131423 73 0.0 0.0 0.00 0.00 0.00 100 1006.5
20260506130423 76 0.0 0.0 0.00 0.00 0.00 100 1006.8
20260506125423 75 0.0 0.0 0.00 0.00 0.00 100 1006.8
20260506124423 75 0.0 0.0 0.00 0.00 0.00 100 1007.0
20260506123423 76 0.0 0.0 0.00 0.00 0.00 100 1007.1
20260506122423 76 0.0 0.0 0.00 0.00 0.00 100 1007.2
20260506121424 76 0.0 0.0 0.00 0.00 0.00 100 1007.3
20260506120423 73 0.0 0.0 0.00 0.00 0.00 100 1007.4
20260506115423 75 0.0 0.0 0.00 0.00 0.00 100 1007.4
20260506114423 74 0.0 0.0 0.00 0.00 0.00 100 1007.4
20260506112159 72 0.0 0.0 0.00 0.00 0.00 100 1007.4
20260506111159 72 0.0 0.0 0.00 0.00 0.00 100 1007.5
20260506110159 70 0.0 0.0 0.00 0.00 0.00 100 1007.7
20260506105159 71 0.0 0.0 0.00 0.00 0.00 100 1007.8
20260506104159 71 0.0 0.0 0.00 0.00 0.00 100 1007.8
20260506100712 72 0.0 0.0 0.00 0.00 0.00 100 1008.1
20260506095712 72 0.0 0.0 0.00 0.00 0.00 100 1008.3
20260506094712 69 0.0 0.0 0.00 0.00 0.00 100 1008.4
20260506092448 68 0.0 0.0 0.00 0.00 0.00 100 1008.3
20260506091449 67 0.0 0.0 0.00 0.00 0.00 100 1008.3
20260506090448 67 0.0 0.0 0.00 0.00 0.00 100 1008.4
20260506085448 66 0.0 0.0 0.00 0.00 0.00 100 1008.3
20260506084448 66 0.0 0.0 0.00 0.00 0.00 100 1008.3
20260506083448 65 0.0 0.0 0.00 0.00 0.00 100 1008.4
20260506082448 65 0.0 0.0 0.00 0.00 0.00 100 1008.5
20260506081448 65 0.0 0.0 0.00 0.00 0.00 8 1008.6
20260506072959 62 0.0 0.0 0.00 0.00 0.00 5 1008.5
20260506071959 62 0.0 0.0 0.00 0.00 0.00 23 1008.7
20260506070959 62 0.0 0.0 0.00 0.00 0.00 22 1008.7
20260506061735 59 0.0 0.0 0.00 0.00 0.00 47 1008.5
20260506060735 58 0.0 0.0 0.00 0.00 0.00 64 1008.5
20260506045024 50 0.0 0.0 0.00 0.00 0.00 100 1007.9
20260506044025 50 0.0 0.0 0.00 0.00 0.00 100 1007.9
20260506043025 50 0.0 0.0 0.00 0.00 0.00 100 1007.9
20260506040800 49 0.0 0.0 0.00 0.00 0.00 100 1007.6
20260506035800 49 0.0 0.0 0.00 0.00 0.00 100 1007.5
20260506034800 49 0.0 0.0 0.00 0.00 0.00 100 1007.4
20260506033800 49 0.0 0.0 0.00 0.00 0.00 100 1007.4
20260506032800 50 0.0 0.0 0.00 0.00 0.00 100 1007.2
20260506031800 50 0.0 0.0 0.00 0.00 0.00 100 1007.3
20260506030800 50 0.0 0.0 0.00 0.00 0.00 100 1007.3
20260506025800 51 0.0 0.0 0.00 0.00 0.00 100 1007.3
20260506024800 52 0.0 0.0 0.00 0.00 0.00 100 1007.4
20260506023801 52 0.0 0.0 0.00 0.00 0.00 100 1007.3
20260506022800 53 0.0 0.0 0.00 0.00 0.00 100 1007.3
20260506021800 53 0.0 0.0 0.00 0.00 0.00 100 1007.3
20260506020800 54 0.0 0.0 0.00 0.00 0.00 100 1007.3
20260506015800 54 0.0 0.0 0.00 0.00 0.00 100 1007.3
20260506014800 54 0.0 0.0 0.00 0.00 0.00 100 1007.3
20260506011313 55 0.0 0.0 0.00 0.00 0.00 77 1006.7
20260506010313 55 0.0 0.0 0.00 0.00 0.00 57 1006.5
20260506005313 56 0.0 0.0 0.00 0.00 0.00 35 1006.4
20260506004314 56 0.0 0.0 0.00 0.00 0.00 4 1006.6
20260506003313 56 0.0 0.0 0.00 0.00 0.00 11 1006.8
20260506002313 56 0.0 0.0 0.00 0.00 0.00 100 1007.0
20260506000050 56 0.0 0.0 0.00 0.00 0.00 100 1006.5
20260505235049 57 0.0 0.0 0.00 0.00 0.00 100 1006.4
20260505232826 58 0.0 0.0 0.00 0.00 0.00 100 1006.1
20260505231827 58 0.0 0.0 0.00 0.00 0.00 100 1006.4
20260505225602 59 0.0 0.0 0.00 0.00 0.00 100 1006.2
20260505224602 59 0.0 0.0 0.00 0.00 0.00 100 1006.2
20260505222339 59 0.0 0.0 0.00 0.00 0.00 100 1006.0
20260505221339 59 0.0 0.0 0.00 0.00 0.00 100 1006.0
20260505220338 60 0.0 0.0 0.00 0.00 0.00 100 1006.0
20260505215339 60 0.0 0.0 0.00 0.00 0.00 100 1005.9
20260505214339 60 0.0 0.0 0.00 0.00 0.00 100 1005.7
20260505210851 60 0.0 0.0 0.00 0.00 0.00 100 1005.5
20260505205851 60 0.0 0.0 0.00 0.00 0.00 100 1005.6
20260505204851 60 0.0 0.0 0.00 0.00 0.00 100 1005.6
20260505203851 61 0.0 0.0 0.00 0.00 0.00 100 1005.7
20260505202851 61 0.0 0.0 0.00 0.00 0.00 100 1005.7
20260505201852 61 0.0 0.0 0.00 0.00 0.00 100 1005.6
20260505200851 62 0.0 0.0 0.00 0.00 0.00 100 1005.7
20260505195851 62 0.0 0.0 0.00 0.00 0.00 100 1005.7
20260505194852 62 0.0 0.0 0.00 0.00 0.00 100 1005.6
20260505193851 63 0.0 0.0 0.00 0.00 0.00 100 1005.7
20260505192852 63 0.0 0.0 0.00 0.00 0.00 100 1005.6
20260505191851 64 0.0 0.0 0.00 0.00 0.00 100 1005.5
20260505190851 64 0.0 0.0 0.00 0.00 0.00 100 1005.5
20260505184627 66 0.0 0.0 0.00 0.00 0.00 100 1005.5
20260505182403 68 0.0 0.0 0.00 0.00 0.00 100 1005.3
20260505181403 68 0.0 0.0 0.00 0.00 0.00 100 1005.3
20260505180403 69 0.0 0.0 0.00 0.00 0.00 100 1005.2
20260505175403 70 0.0 0.0 0.00 0.00 0.00 100 1005.2
20260505174403 71 0.0 0.0 0.00 0.00 0.00 100 1005.2
20260505173403 72 0.0 0.0 0.00 0.00 0.00 100 1005.1
20260505172403 72 0.0 0.0 0.00 0.00 0.00 100 1005.1
20260505171404 73 0.0 0.0 0.00 0.00 0.00 100 1005.0
20260505170404 73 0.0 0.0 0.00 0.00 0.00 100 1005.0
20260505164141 75 0.0 0.0 0.00 0.00 0.00 100 1005.1
20260505161916 80 0.0 0.0 0.00 0.00 0.00 100 1005.3
20260505160916 80 0.0 0.0 0.00 0.00 0.00 100 1005.3
20260505152916 83 0.0 0.0 0.00 0.00 0.00 100 1005.6
20260505151916 83 0.0 0.0 0.00 0.00 0.00 100 1005.8